Theta_e
353 353 349 346 342 338 331 328 327 327 327 329 333 337 340 341 342 341 341 340 340 339 336 334 334 335 336 337 337 340 341 341 337 334 336 335 329 328 329 329 329 328 329 330 332 335 334 336 337 338 340 341 339 337 338 338 338 339 338 338 338 338 337 336 336 336 336 335 336 336 336 336 335 335 334 333 334 334 335 334 334 334 334 334 334
353 352 349 345 341 336 330 329 327 327 326 327 328 329 332 334 337 339 342 341 340 340 338 335 335 336 336 337 338 341 342 342 338 332 335 335 327 326 328 328 328 328 332 330 332 338 339 340 340 340 340 340 339 338 339 339 339 339 338 337 337 337 337 337 337 337 336 336 336 335 335 335 335 334 333 333 334 335 335 334 334 334 334 334 334
353 352 349 344 340 335 330 329 327 327 326 327 327 327 328 328 330 334 340 342 342 341 339 337 336 337 337 338 339 341 342 342 338 332 333 334 328 327 327 328 330 333 336 334 335 341 342 341 340 340 340 339 340 339 340 339 339 339 338 337 336 336 337 338 337 336 334 332 333 333 334 334 334 334 334 333 334 334 334 333 333 333 333 333 333
353 352 348 343 339 335 331 330 328 328 327 327 327 328 328 328 327 330 337 341 343 342 341 340 338 338 337 338 340 342 342 342 340 335 332 332 332 330 329 330 332 335 337 338 339 342 342 341 340 341 340 339 339 339 339 338 338 338 337 337 336 335 338 337 335 333 332 333 334 335 335 334 334 334 334 333 334 333 333 332 332 332 332 333 333
352 351 347 344 339 334 332 330 328 328 327 327 328 329 328 328 327 328 336 341 343 341 341 341 339 339 338 339 341 342 343 342 341 338 334 332 334 335 335 335 335 337 338 339 341 342 342 341 340 340 339 339 339 339 339 337 337 337 336 336 335 336 337 336 333 333 336 337 338 339 337 336 334 333 334 333 332 330 331 332 332 332 331 332 332
352 350 348 346 340 335 333 331 329 328 327 327 328 328 329 328 326 326 334 340 342 341 341 340 340 339 339 340 341 342 342 342 341 340 339 337 336 338 340 339 339 340 340 340 341 342 341 339 339 338 338 339 339 340 338 337 336 337 336 335 336 336 337 334 332 335 338 338 339 340 338 336 334 333 333 333 333 331 332 332 332 332 332 332 332
351 350 348 347 342 336 333 331 329 328 327 327 327 329 329 328 327 326 330 336 339 341 341 340 339 338 339 340 341 342 341 342 340 339 338 337 337 339 341 340 340 341 341 341 341 341 339 338 338 338 338 339 339 339 338 337 336 337 337 336 336 336 336 332 332 336 337 339 340 339 338 338 335 333 333 333 333 333 333 332 332 332 332 331 331
350 349 349 348 343 337 334 332 330 329 327 327 328 329 329 328 328 328 329 331 334 337 338 338 338 338 339 340 341 340 340 340 339 337 335 334 336 338 339 340 341 341 341 340 340 339 338 338 338 338 338 338 338 338 337 337 336 337 337 337 337 336 336 331 332 336 337 339 338 337 338 338 335 334 333 333 333 332 331 331 331 332 332 331 332
351 349 349 349 343 337 336 334 332 329 327 328 328 329 329 329 329 330 332 332 333 334 335 337 339 340 340 339 340 339 339 340 339 337 336 337 337 338 337 338 339 339 340 340 339 338 338 338 337 338 338 338 338 337 336 336 336 336 337 337 336 335 334 329 332 337 337 338 336 337 339 337 336 334 333 333 332 332 332 331 331 332 332 331 332
351 349 349 348 342 337 336 334 332 329 328 328 328 329 330 329 329 331 333 334 335 336 337 339 340 340 339 337 337 338 339 339 337 336 337 338 338 336 334 334 334 335 338 338 338 337 337 337 337 338 338 338 337 336 335 336 335 335 335 335 334 333 330 327 333 337 336 337 336 337 338 338 336 334 333 332 331 332 332 331 330 331 331 331 331
350 351 349 347 342 338 337 334 333 329 328 328 328 329 330 330 329 330 332 334 336 337 338 339 339 338 337 336 335 337 338 337 336 336 337 338 336 334 333 331 330 333 336 337 337 337 337 337 338 338 338 337 337 336 335 335 334 333 333 332 332 330 329 330 336 337 336 336 335 335 335 336 335 333 331 330 331 331 330 329 330 331 331 331 331
347 349 350 346 341 339 337 335 333 330 329 328 328 329 330 330 329 329 330 332 334 335 336 336 336 335 335 334 335 336 337 337 337 338 338 338 337 336 335 332 330 330 333 335 337 337 336 337 338 338 337 336 335 335 334 333 331 330 329 328 328 328 331 333 336 336 335 336 335 334 334 335 333 332 331 330 331 330 330 330 330 330 331 331 330
345 349 350 346 342 339 337 335 334 331 329 328 328 329 330 330 330 329 329 329 330 332 333 333 333 333 332 331 333 336 337 338 338 338 338 338 338 337 336 333 330 328 330 334 336 336 336 336 337 337 337 335 334 333 332 330 329 329 328 328 326 328 333 334 336 336 335 336 335 335 335 335 332 332 332 331 331 330 330 330 330 330 330 331 330
344 348 349 347 343 341 339 336 335 332 330 329 328 329 330 330 330 329 329 328 328 329 329 331 332 333 333 332 332 334 335 337 337 338 337 337 338 338 336 333 331 329 330 333 335 335 335 336 337 336 336 334 332 330 330 330 331 330 329 329 327 329 333 334 335 336 335 335 336 335 334 334 332 332 332 331 331 330 330 329 329 329 330 331 331
343 347 347 346 344 342 340 337 336 334 332 330 329 329 329 331 331 330 330 329 329 329 330 330 332 333 334 334 333 334 335 336 337 338 336 336 337 337 336 333 332 330 330 332 333 334 335 336 337 336 335 332 330 330 331 332 331 329 327 330 328 329 332 334 335 335 335 335 335 334 335 333 331 332 332 331 331 330 329 329 329 329 330 330 330
342 344 345 346 346 344 342 340 338 337 335 331 330 329 329 330 331 331 331 331 331 331 333 333 332 333 335 336 336 336 335 336 337 336 335 335 336 336 336 333 332 330 331 332 332 334 335 336 336 335 334 331 331 332 333 332 329 327 327 331 330 330 333 335 336 335 335 334 334 334 335 332 330 332 332 330 330 330 329 328 329 329 329 329 329
342 343 344 344 345 345 344 343 341 339 336 332 330 330 329 330 331 332 332 332 333 333 334 335 335 335 336 337 336 337 337 337 337 336 334 334 335 335 336 334 331 330 329 331 331 333 334 335 336 335 333 332 332 333 332 329 326 326 327 330 332 331 333 335 336 335 334 335 334 334 335 331 331 333 332 330 329 329 328 329 328 328 329 328 329
342 341 343 343 344 345 345 344 342 341 339 335 332 331 330 330 331 332 333 333 334 334 335 335 336 336 337 337 337 338 338 338 338 336 335 334 334 334 335 334 333 331 328 329 330 331 332 334 335 334 333 333 333 332 331 328 324 325 326 329 332 331 333 335 336 335 332 333 335 335 335 330 329 333 331 330 329 329 328 328 328 328 328 328 328
342 342 343 342 342 344 346 344 342 343 341 339 337 334 332 331 331 332 334 335 335 335 335 335 336 337 337 337 337 338 339 339 338 336 334 333 333 333 333 333 333 332 329 329 330 330 331 334 334 334 333 333 332 331 331 327 323 325 326 328 331 331 333 335 336 334 330 332 335 335 335 329 328 332 331 330 329 328 328 327 328 328 328 328 328
342 342 343 343 342 343 345 345 344 344 343 344 342 339 335 333 331 332 334 335 336 336 335 336 338 338 337 336 336 338 339 338 337 337 334 333 333 333 331 332 334 334 332 331 331 331 332 333 333 333 333 332 332 331 331 328 323 324 326 328 330 331 333 335 335 333 332 332 333 335 332 327 329 332 331 330 329 328 327 327 328 327 327 327 327
342 342 342 342 341 341 343 346 345 344 344 345 344 343 340 336 333 332 334 336 336 337 337 338 338 338 338 337 336 339 340 337 337 337 335 334 334 333 331 332 334 335 333 333 333 332 331 332 331 331 332 332 331 331 331 329 324 323 326 327 328 332 335 336 334 332 332 331 331 334 329 326 330 332 330 330 329 328 327 327 327 327 327 327 327
343 343 342 341 340 340 342 344 345 344 344 345 344 344 342 340 338 335 336 337 336 336 338 338 338 338 338 338 338 339 339 337 337 336 335 334 334 334 332 331 333 333 333 333 333 333 331 329 329 329 330 331 330 329 330 329 326 325 326 327 329 334 337 336 334 332 332 331 332 334 328 326 331 332 331 330 329 328 327 326 327 327 327 326 326
343 343 342 341 339 339 341 342 344 344 344 344 343 343 343 341 342 340 339 338 337 338 338 338 339 338 337 338 340 339 338 337 336 336 335 335 333 333 332 330 330 330 331 331 332 333 332 329 327 327 327 328 327 327 329 329 329 327 325 327 332 336 337 336 335 332 332 333 333 332 327 326 331 332 331 330 329 328 327 326 326 326 326 326 325
343 342 342 340 339 339 339 340 341 343 344 345 344 343 342 342 343 341 340 339 339 339 338 339 339 338 338 338 340 338 336 337 336 336 336 335 333 333 332 330 329 328 328 330 331 331 332 331 328 326 326 326 326 327 328 328 329 330 328 330 334 336 336 337 336 334 332 333 334 331 326 328 332 332 331 330 329 329 327 326 326 326 326 325 325
342 341 340 339 339 339 339 339 340 341 343 343 343 343 342 341 341 340 340 340 339 339 338 339 339 340 340 339 339 337 335 335 336 336 336 334 334 334 333 332 331 329 326 330 332 331 331 332 330 328 327 328 328 328 327 326 328 329 330 331 333 334 336 337 336 335 333 333 333 329 326 329 332 332 331 330 329 329 327 326 326 325 325 325 325
341 339 339 339 338 339 339 338 339 340 340 339 341 342 341 341 340 339 340 340 339 339 339 338 338 338 338 337 338 336 334 335 335 336 336 335 335 335 334 333 334 333 329 329 332 331 331 331 331 330 329 330 329 329 328 327 327 328 328 330 332 334 335 336 336 335 334 334 333 328 326 330 332 333 331 330 329 329 327 326 326 324 324 325 325
340 339 339 339 338 338 338 338 338 340 339 337 340 341 341 341 340 339 339 339 339 338 338 338 338 337 337 335 336 336 334 335 335 335 335 335 336 335 334 333 333 334 332 331 331 331 332 330 331 331 330 329 329 330 330 329 328 328 328 329 330 332 334 335 336 335 334 335 334 329 327 329 332 332 332 331 329 328 328 327 326 324 322 324 325
340 340 339 339 338 337 337 337 338 340 340 337 338 339 339 339 339 339 338 338 339 338 338 338 338 338 337 335 336 336 335 336 334 334 334 334 336 335 333 333 333 333 333 333 333 332 331 331 330 331 330 329 329 329 329 329 328 327 327 328 329 331 333 334 334 335 335 335 334 329 327 328 330 332 332 331 330 329 329 328 327 326 321 320 324
340 340 339 338 337 337 337 338 338 339 340 339 338 339 338 337 337 337 337 338 338 338 338 337 337 338 337 336 336 336 336 337 334 333 333 334 335 333 334 335 334 333 334 335 334 332 332 331 330 331 331 329 328 327 328 328 328 327 327 328 329 329 331 333 334 335 334 334 334 331 327 327 328 330 331 331 331 330 329 328 327 327 322 318 319
339 339 339 337 337 336 336 337 338 337 338 338 338 338 338 338 337 336 336 338 338 337 338 337 337 337 337 337 337 336 337 337 335 335 336 335 334 334 335 336 334 335 336 336 333 332 332 331 330 330 330 328 326 326 326 327 326 327 327 327 328 328 330 332 333 334 334 333 334 332 329 327 327 328 330 331 332 331 329 329 327 327 325 321 318
339 339 337 336 336 335 335 335 336 336 335 335 335 336 336 336 337 337 336 336 336 337 337 336 337 336 337 336 336 337 337 337 336 336 337 336 335 336 336 335 335 336 337 337 334 333 332 331 331 330 329 329 327 325 325 326 326 326 326 326 326 327 329 330 331 332 333 332 333 333 331 328 327 327 327 329 331 332 330 329 329 327 327 325 323
339 338 336 336 336 334 333 333 336 337 333 332 332 332 332 332 334 336 336 336 336 337 337 337 337 336 336 336 335 336 336 337 337 336 336 336 336 335 336 335 336 336 336 336 336 334 331 332 331 329 330 330 327 326 325 325 326 326 325 325 326 326 328 329 330 330 331 331 331 332 332 330 328 327 327 327 329 332 331 331 330 328 328 327 326
338 337 336 337 337 335 334 334 336 336 332 331 331 330 329 330 331 331 335 337 337 337 336 336 336 335 336 335 336 336 336 337 337 336 336 335 336 335 335 335 336 336 336 336 336 334 331 332 331 327 329 329 328 326 325 326 325 326 327 325 325 326 327 329 329 330 330 330 330 330 332 332 330 329 327 326 327 329 330 331 331 329 329 328 328
336 337 337 338 337 336 336 335 335 334 333 333 330 329 329 329 330 330 334 337 336 337 337 336 335 335 335 334 335 335 336 336 336 336 336 335 335 335 334 335 336 336 337 336 336 335 332 332 330 328 327 326 326 324 322 326 325 325 327 326 326 326 327 329 328 330 330 330 329 329 331 332 332 331 329 327 326 327 328 329 330 329 330 329 328
335 338 338 338 337 338 337 337 336 335 334 334 331 331 331 330 329 331 333 333 333 334 336 336 335 335 335 335 335 335 335 335 336 336 336 335 334 335 334 335 336 336 336 336 336 336 333 331 330 329 327 325 327 323 320 323 325 325 327 328 327 327 326 327 327 328 329 329 329 329 329 330 332 333 333 331 328 326 326 327 328 328 330 330 329
337 338 338 338 338 339 338 337 336 336 335 333 333 333 332 331 330 331 332 331 329 330 332 333 334 334 334 334 334 334 335 334 336 335 335 334 334 334 333 334 335 335 335 335 336 335 333 331 330 329 329 327 327 326 323 324 326 327 330 330 329 329 328 327 327 327 328 329 328 329 329 329 330 331 333 333 332 329 327 326 326 326 328 329 329
337 338 338 339 338 337 337 336 336 336 334 333 334 334 332 331 330 330 330 329 328 328 328 328 329 330 331 332 332 333 333 333 334 335 334 334 334 334 333 334 334 333 334 335 334 334 333 332 331 330 330 330 329 328 327 326 325 327 329 330 331 331 330 328 328 327 327 327 328 328 329 330 329 330 331 333 333 333 330 327 326 326 326 327 328
337 338 338 338 337 335 336 336 335 335 334 333 333 332 331 330 328 328 327 326 326 326 326 326 326 327 328 329 330 330 331 332 332 333 334 333 333 334 333 333 333 332 333 333 332 334 333 332 332 331 331 331 330 329 329 328 327 327 325 326 328 330 331 330 329 328 328 327 327 328 328 329 329 330 331 331 332 333 333 331 329 327 326 326 326
338 339 339 337 337 335 336 336 334 335 334 333 333 331 330 328 327 326 324 323 324 325 326 326 326 325 326 328 328 328 328 330 330 330 331 331 331 332 332 333 332 331 332 332 332 333 333 332 332 331 330 330 330 331 331 330 331 330 327 326 327 328 331 331 330 329 328 328 327 328 327 328 329 329 330 331 331 332 333 333 331 330 328 326 326
340 340 338 337 338 336 336 335 334 334 334 333 332 329 328 326 325 325 323 324 325 326 325 325 325 325 325 326 326 326 326 327 327 328 327 327 328 329 330 331 330 330 330 330 331 331 332 332 331 331 331 330 330 331 332 333 333 332 330 329 328 328 330 330 330 329 328 328 327 327 327 327 328 329 330 331 331 331 333 334 333 333 332 330 328
340 341 339 338 338 336 336 335 334 334 332 331 329 327 327 325 324 324 323 323 324 324 325 325 325 325 325 324 324 324 325 325 325 326 326 325 325 325 327 329 329 330 330 330 331 331 331 331 331 331 331 330 330 331 333 334 334 332 330 330 329 329 329 329 329 330 329 328 328 327 328 327 327 328 329 330 330 331 331 332 333 333 333 333 331
339 340 339 338 337 335 335 335 334 333 330 329 328 326 325 324 323 323 322 322 323 323 324 324 323 322 322 322 322 323 323 323 324 325 325 324 324 324 325 327 327 328 330 331 331 331 330 330 331 331 331 330 330 332 332 332 332 333 332 331 332 331 328 327 327 329 328 328 328 328 327 328 328 328 328 329 329 329 329 331 331 332 332 332 332
337 338 338 338 337 335 334 335 333 330 329 329 328 326 324 324 322 321 321 322 323 324 323 323 323 321 322 322 323 323 323 323 323 324 324 323 323 322 323 325 326 327 328 330 330 329 329 330 330 330 330 329 331 332 331 330 331 332 333 332 333 333 332 330 328 329 329 328 328 328 329 328 328 328 328 328 328 328 328 328 329 330 330 331 332
335 335 336 337 335 334 334 334 331 328 328 329 327 326 325 325 323 323 323 323 324 324 323 322 322 322 322 322 322 323 324 323 323 323 322 322 322 321 321 323 323 324 325 326 328 328 329 330 329 329 329 329 331 331 331 331 330 331 332 332 333 334 334 334 332 331 331 330 328 328 329 329 329 328 328 327 327 328 328 328 328 329 330 331 331
334 334 334 335 334 333 333 333 330 327 329 328 327 327 325 325 325 324 325 323 322 322 321 322 322 322 321 321 322 323 323 323 323 322 321 321 321 321 321 321 321 322 322 323 324 325 325 327 328 329 328 329 329 329 329 330 330 330 331 332 333 333 334 334 333 334 333 331 330 330 330 329 329 329 329 328 328 328 329 329 329 330 331 331 332
334 333 333 333 333 332 333 333 329 328 329 328 328 326 323 324 324 322 322 321 321 322 322 321 321 321 321 321 322 323 323 323 323 322 321 321 321 321 320 320 320 321 321 322 321 321 321 322 324 326 328 329 329 327 327 328 329 328 328 330 330 331 333 333 334 335 333 331 331 332 331 330 329 329 330 330 330 330 330 330 330 332 332 333 333
333 333 333 333 332 332 334 332 329 328 328 328 328 324 322 323 322 320 320 320 321 322 321 321 321 321 320 321 322 322 323 323 323 322 322 322 321 321 321 321 320 320 321 321 320 321 321 321 322 323 324 325 327 327 326 327 328 327 326 327 327 327 328 331 332 334 334 333 331 329 330 330 330 329 329 330 331 329 329 330 331 331 332 332 333
333 333 333 333 331 330 333 332 328 329 329 329 327 323 323 323 321 321 320 319 321 322 322 322 321 320 320 322 322 322 322 322 322 322 322 321 321 321 320 319 318 317 317 318 318 319 320 320 321 322 322 322 323 325 325 325 326 326 326 327 327 325 325 328 329 329 330 332 332 330 329 329 329 329 329 329 330 329 328 330 331 331 331 331 333
332 333 333 333 331 330 333 331 328 329 329 328 325 323 324 323 322 322 319 319 321 321 320 321 320 320 321 321 321 321 321 321 321 320 319 319 319 318 317 316 316 315 314 314 315 316 318 319 319 320 321 321 321 322 323 322 322 323 324 325 326 325 325 327 328 326 326 328 330 331 330 328 328 327 328 328 330 329 330 330 331 330 330 330 331
332 332 333 333 330 330 332 331 328 328 329 328 325 323 324 323 322 321 319 320 321 319 319 321 320 320 320 320 320 320 320 320 319 317 317 318 317 317 316 315 315 315 315 315 315 316 317 317 318 318 319 319 319 320 321 321 320 320 321 322 322 323 325 326 326 325 325 326 327 329 328 329 330 327 325 325 327 328 328 329 329 328 329 330 330
332 332 333 333 330 330 332 330 327 328 330 328 325 323 324 323 322 321 320 321 321 319 319 321 320 321 320 319 319 319 319 318 317 317 317 317 317 317 316 315 315 315 316 317 316 317 317 317 317 317 317 317 317 318 318 318 318 318 318 320 320 320 321 322 322 322 322 323 324 326 326 327 329 327 324 322 321 323 323 325 327 326 327 329 329
Wind_Speed
19 20 23 24 24 23 21 20 19 19 18 18 17 16 16 15 15 15 15 15 14 14 15 15 14 15 15 16 15 14 14 14 14 15 14 15 17 16 16 15 14 14 12 10 9 9 9 9 9 9 9 9 9 10 11 10 11 11 12 11 11 11 11 12 13 13 13 13 13 14 13 13 13 13 13 13 13 13 11 11 12 12 13 13 14
21 22 23 25 25 23 22 21 20 20 19 18 17 16 16 15 14 14 14 15 14 14 15 15 15 16 16 16 15 13 14 15 15 16 15 16 17 16 14 14 14 13 12 10 9 9 9 9 9 10 10 9 9 10 10 10 10 10 10 10 10 11 10 11 12 11 11 12 12 13 13 13 13 12 12 11 9 10 10 9 11 11 13 13 13
24 22 23 26 25 24 23 22 21 20 20 19 18 17 16 14 13 13 14 14 14 14 14 15 16 17 17 15 14 12 14 15 15 16 16 17 17 15 14 13 13 13 11 10 8 8 8 8 9 10 10 9 9 10 10 9 9 9 9 9 10 10 10 11 11 10 10 11 13 14 14 13 12 11 10 8 8 11 13 11 11 12 13 13 13
24 23 24 27 25 25 23 22 22 21 20 19 19 17 16 14 13 13 13 14 14 14 14 14 16 17 16 14 13 11 13 15 15 15 16 17 17 14 13 12 12 12 11 10 9 8 8 8 9 10 9 9 9 9 8 8 9 8 8 8 9 9 9 10 9 9 10 11 14 15 13 12 11 11 9 9 9 12 14 12 12 12 12 12 13
23 23 25 26 25 25 23 23 22 21 21 20 19 17 16 15 13 13 13 14 14 14 14 14 16 15 14 12 12 11 12 14 14 14 15 16 15 13 12 12 11 10 10 9 9 8 8 8 8 8 9 9 9 8 7 7 7 7 6 6 8 8 8 8 9 11 12 11 11 10 10 10 10 10 10 10 10 12 13 13 12 12 11 11 12
23 24 25 24 24 25 24 23 22 21 21 20 19 17 16 15 14 13 14 14 14 14 14 15 15 13 12 11 11 12 13 14 14 13 14 15 14 12 11 11 10 10 9 8 8 8 8 7 7 7 8 8 8 8 7 6 6 6 6 6 7 7 6 6 9 11 10 10 9 6 6 9 9 10 9 10 11 11 12 12 12 11 12 12 12
22 24 24 23 23 25 24 23 22 21 21 20 19 18 17 15 14 13 14 14 14 14 14 14 13 12 12 12 13 14 15 15 14 14 13 13 12 11 11 11 10 9 8 8 7 7 7 6 6 7 7 8 8 7 7 7 6 6 6 7 6 6 5 5 8 8 7 6 5 5 6 8 9 9 9 10 10 10 11 11 11 10 11 11 11
20 22 23 22 23 25 25 23 23 22 21 20 19 18 17 16 15 14 14 13 14 14 14 13 13 13 13 14 15 16 16 15 14 13 13 12 12 12 11 10 10 9 8 8 7 7 6 5 6 6 7 8 7 7 7 7 7 6 6 6 5 4 2 5 8 9 9 6 3 5 7 7 9 9 8 9 10 10 10 10 11 10 10 11 11
19 19 23 22 24 27 25 24 23 22 21 20 20 19 17 17 15 15 14 14 14 13 13 13 13 13 14 15 15 16 15 13 13 13 13 12 12 11 10 9 9 9 9 8 8 8 6 5 6 6 7 7 7 6 7 7 6 6 6 4 4 2 1 7 9 9 8 5 4 6 6 7 9 9 7 9 9 8 8 9 11 10 10 10 10
20 18 20 21 25 26 25 24 23 22 21 20 20 19 18 17 16 15 15 14 14 14 14 14 14 14 14 14 14 14 13 12 12 12 12 11 10 10 9 9 9 9 10 9 9 9 7 6 7 7 8 8 7 7 6 6 7 6 4 3 2 1 3 9 10 10 7 4 5 6 7 8 11 9 7 7 7 7 8 9 10 10 9 10 10
19 18 19 21 26 25 25 24 23 22 21 20 19 19 18 17 17 16 15 15 15 15 15 14 14 14 14 13 13 13 12 12 12 12 11 10 9 9 8 8 7 9 10 10 10 9 7 8 9 8 8 8 7 6 6 5 5 4 2 1 1 2 7 9 7 6 4 5 7 6 7 9 11 9 6 8 7 8 9 9 10 10 10 10 10
18 19 19 22 25 25 25 23 23 22 21 20 19 19 18 18 17 16 15 15 15 15 15 15 14 14 14 13 13 13 12 12 12 11 10 9 9 8 7 6 7 8 8 10 11 9 8 10 10 7 7 7 6 5 5 4 4 3 2 2 2 6 8 6 3 1 3 6 6 6 7 9 9 7 7 9 9 9 10 10 10 10 10 10 10
18 19 20 22 24 24 24 23 22 22 21 21 20 20 19 19 18 17 16 15 15 15 15 14 14 14 13 13 13 12 12 12 11 10 9 9 8 8 7 6 7 7 8 10 11 10 9 10 8 7 6 6 6 5 4 4 5 5 5 5 5 9 9 7 4 1 4 6 5 6 7 9 8 7 8 9 9 9 9 10 9 9 9 9 10
18 19 21 22 23 24 23 23 22 21 21 20 20 20 19 19 19 18 17 16 16 15 15 14 14 14 13 13 12 12 12 12 11 10 10 9 9 8 7 6 7 7 8 9 10 10 10 9 8 7 7 6 6 6 6 6 6 6 6 5 5 10 10 8 5 3 5 5 5 5 7 9 8 7 8 8 8 9 9 9 9 10 9 9 10
18 18 20 21 22 23 22 23 22 21 21 20 20 19 19 19 18 18 17 17 16 15 15 14 14 13 13 12 12 11 11 11 11 11 10 10 9 8 7 6 6 7 8 8 9 10 9 9 7 7 7 7 7 7 7 6 5 6 6 5 3 8 8 3 1 4 4 4 4 4 9 10 7 8 8 8 7 8 9 9 9 10 9 9 9
17 18 18 19 21 22 22 22 22 22 21 20 20 19 19 18 18 18 17 17 16 15 15 14 14 13 13 12 11 11 11 11 10 11 10 9 8 7 6 6 5 6 8 8 8 9 9 8 7 7 6 8 8 7 6 4 3 6 6 5 2 6 6 3 0 3 3 4 4 4 9 8 6 8 8 8 7 8 9 9 9 9 9 9 9
16 16 16 18 21 22 21 21 21 21 21 20 20 19 19 18 18 17 17 16 15 15 15 14 14 13 12 11 10 10 10 10 10 9 9 8 8 7 7 6 5 5 7 8 8 8 8 8 7 6 5 8 8 6 4 3 3 5 6 6 3 5 5 4 1 3 4 4 4 4 9 9 8 8 7 8 8 8 8 8 9 8 9 8 8
15 15 15 16 19 21 20 20 21 21 21 21 19 19 18 18 18 17 16 15 14 14 14 13 13 12 11 10 9 9 9 9 9 9 8 8 7 7 7 6 6 5 6 7 8 8 8 8 7 6 6 9 8 5 3 2 2 4 5 5 4 5 5 4 2 3 4 3 3 5 9 8 8 7 7 8 8 8 8 8 8 8 8 8 8
14 14 15 15 17 20 19 18 20 20 18 18 18 18 17 18 18 18 16 15 14 13 13 13 12 11 10 9 9 9 9 8 8 9 8 7 7 7 7 7 7 6 6 7 9 8 8 7 6 6 8 10 7 5 3 1 1 2 4 5 4 5 6 4 1 4 4 3 4 6 6 4 6 7 7 7 8 8 8 8 8 7 7 7 7
13 13 13 13 15 18 18 16 17 18 16 15 15 16 17 17 18 18 17 16 15 13 13 12 11 10 10 9 9 9 9 8 8 8 8 8 7 7 7 8 8 7 6 6 7 8 8 7 6 7 9 9 6 5 4 2 1 1 2 3 4 5 6 0 2 4 3 3 5 5 2 3 7 7 6 8 8 7 7 8 7 7 7 7 7
12 12 12 12 13 17 18 15 15 16 15 14 14 14 15 17 17 18 17 16 15 14 14 12 11 10 9 10 9 8 7 8 8 8 10 9 8 8 8 9 8 8 7 7 7 8 8 7 7 8 9 8 6 5 4 3 3 2 2 1 2 4 5 2 2 4 4 4 5 3 1 3 8 6 7 7 7 7 7 7 7 7 7 7 7
12 11 10 10 11 15 18 16 14 15 14 13 13 12 14 16 15 15 15 13 14 13 13 11 10 10 10 10 8 8 8 8 10 11 11 10 10 10 10 10 9 9 8 8 8 8 8 8 9 9 9 8 6 5 5 5 4 4 3 2 1 5 6 5 4 4 4 5 5 2 3 4 8 6 8 7 6 6 6 7 6 6 6 6 6
12 11 10 9 10 12 16 16 13 14 13 10 11 10 13 15 11 12 13 12 12 12 11 9 10 11 11 10 8 8 9 9 11 11 10 12 12 11 10 10 10 9 9 8 8 8 8 8 10 10 9 9 8 7 7 7 5 3 4 4 4 6 6 6 5 4 4 5 5 2 3 5 9 7 8 7 5 6 6 6 6 6 6 5 5
12 11 10 9 9 9 12 15 14 15 13 10 10 9 12 14 11 12 13 12 12 12 11 11 11 10 9 10 8 8 8 9 11 9 11 14 13 12 12 11 10 10 9 8 8 8 7 8 10 10 10 10 9 9 8 8 6 3 4 6 6 6 6 7 5 4 5 6 6 1 1 7 10 8 7 6 6 6 5 6 6 6 5 6 5
12 11 10 9 9 8 8 11 15 17 16 13 10 10 11 12 12 11 12 12 13 12 11 13 11 7 6 8 6 6 7 8 10 10 12 13 13 13 13 11 12 12 10 9 9 8 7 9 10 10 11 10 10 10 8 8 7 5 6 6 6 6 6 7 6 5 5 5 5 1 1 7 11 8 7 7 6 5 5 6 6 6 6 6 6
11 10 10 9 9 8 8 8 11 14 14 13 11 11 12 11 12 11 11 12 12 12 12 12 10 7 6 8 7 6 7 7 8 10 12 13 12 12 12 13 13 12 11 10 9 8 7 9 10 10 10 9 9 8 7 7 7 7 7 6 5 6 7 7 6 5 5 5 5 2 0 7 10 8 7 7 6 5 5 6 6 6 7 6 5
11 10 10 9 9 8 9 8 7 8 10 11 11 11 11 11 12 12 12 12 12 13 12 9 7 8 7 10 12 11 10 8 8 11 12 12 12 12 12 12 12 9 11 11 9 9 9 9 9 8 9 8 9 8 7 7 8 7 7 7 6 7 7 8 6 5 5 6 6 2 1 6 9 9 8 7 6 6 6 5 5 4 6 7 5
10 11 10 10 9 8 8 7 6 6 6 9 9 8 8 8 8 8 9 12 12 10 10 8 6 7 8 10 11 12 13 11 10 12 13 13 12 13 10 9 10 8 10 10 8 9 9 8 8 8 8 8 9 10 9 9 10 8 8 7 7 8 8 7 7 6 5 6 6 3 2 5 8 10 9 7 6 6 6 5 5 4 5 7 7
11 11 10 10 9 8 7 6 6 5 4 5 6 6 7 8 8 9 9 10 10 8 9 8 7 8 9 10 10 12 13 11 12 12 12 13 12 11 9 8 8 8 9 9 7 7 8 8 7 7 7 7 8 9 10 10 11 9 8 9 8 8 9 8 7 6 6 6 6 5 3 4 7 9 9 8 7 6 7 6 5 5 4 4 6
12 12 10 9 8 8 7 6 5 4 4 4 4 4 5 6 8 9 8 7 8 7 7 7 7 8 8 9 10 11 11 9 10 9 7 9 8 7 8 7 7 7 7 7 9 8 7 8 7 8 7 7 8 8 9 10 12 11 10 10 10 9 9 8 8 8 7 7 7 7 4 3 6 8 9 10 9 7 7 6 6 6 5 4 4
12 12 10 9 8 8 7 6 6 4 3 3 3 3 3 4 4 4 4 5 6 5 4 5 6 6 7 9 9 9 9 8 7 6 6 5 6 6 7 7 7 7 6 6 9 9 8 8 8 8 6 7 9 8 8 10 12 13 12 11 11 10 9 9 9 9 9 8 9 8 6 5 6 7 8 9 11 9 7 6 7 7 6 5 4
12 11 10 9 8 7 7 6 6 5 2 2 3 1 2 2 2 2 3 3 4 4 4 5 5 6 7 9 10 9 7 6 6 7 7 6 7 7 7 7 8 7 6 7 9 10 9 8 7 8 5 4 8 8 7 9 12 13 13 13 11 10 10 9 9 10 10 9 9 9 8 7 7 7 7 8 10 11 9 7 7 7 7 6 5
12 11 10 11 9 7 8 7 6 5 3 2 2 1 1 2 2 2 2 3 3 3 4 5 6 6 5 6 8 8 6 5 7 8 8 8 8 9 9 8 8 7 8 10 10 10 11 9 8 8 6 4 8 11 10 9 11 13 13 12 12 12 11 11 11 10 10 9 8 9 10 9 8 8 8 8 9 11 11 10 9 7 7 7 6
13 12 11 12 10 8 8 7 6 6 5 3 1 1 1 1 1 1 1 2 2 2 3 4 5 6 6 6 7 6 5 5 6 7 8 9 8 10 10 8 8 8 9 10 10 10 11 11 9 8 8 7 9 14 14 11 11 12 12 11 11 12 12 11 12 11 10 9 9 9 10 10 10 10 9 9 9 10 11 11 11 9 9 8 7
14 14 13 13 11 10 8 7 7 6 5 4 2 1 1 0 0 0 1 0 1 2 2 3 3 4 6 5 6 6 5 5 5 6 7 8 9 10 9 8 7 7 7 9 8 9 11 12 12 9 8 9 10 12 14 13 11 10 10 11 11 10 11 12 12 12 11 11 10 9 9 9 10 11 11 11 11 11 11 12 11 10 10 10 9
15 15 14 13 11 10 9 8 8 7 6 5 3 2 2 2 2 2 1 1 1 1 1 2 2 2 3 4 5 4 4 4 5 7 7 8 10 10 9 8 7 6 7 7 6 9 12 13 13 11 9 11 12 11 12 12 10 9 9 11 11 10 10 11 11 12 12 12 12 11 10 9 10 10 11 12 12 12 12 12 12 11 12 12 11
15 15 15 14 12 11 9 9 9 7 6 5 4 3 3 3 3 3 1 2 1 1 1 2 2 2 2 3 3 2 2 3 4 5 6 8 10 9 9 9 9 9 8 6 7 10 13 13 13 13 11 11 12 11 11 11 10 9 8 10 10 10 10 11 11 12 12 12 12 12 11 11 11 10 10 11 13 13 12 12 12 12 12 12 12
15 15 15 14 12 11 10 10 9 8 7 6 5 4 4 4 4 3 2 2 1 1 1 1 2 2 1 2 2 1 1 2 3 3 4 7 8 7 7 8 8 8 7 7 9 10 11 12 13 14 12 12 14 12 11 11 10 9 8 9 10 10 10 11 11 12 12 12 12 12 12 11 11 11 11 11 11 13 13 12 11 12 13 13 13
15 15 15 14 12 11 11 10 10 8 8 7 6 6 5 5 4 3 2 2 2 2 2 2 3 2 2 1 1 1 1 2 2 3 4 6 6 6 6 6 7 6 6 8 8 8 9 12 13 13 12 14 17 14 9 10 9 7 5 7 9 9 9 10 10 11 12 12 12 12 12 12 11 11 11 11 11 11 13 13 12 13 15 15 15
15 15 15 14 13 12 12 11 10 10 9 8 8 6 6 5 4 4 3 3 4 4 3 3 3 3 3 2 1 0 1 2 2 3 3 5 5 5 4 4 6 5 5 7 8 7 9 11 12 12 11 12 16 14 7 8 7 5 4 7 9 9 9 8 8 9 11 12 12 12 13 12 12 11 11 11 12 11 12 12 13 15 15 16 15
15 16 15 14 14 13 13 12 12 11 10 9 8 7 6 6 5 4 4 4 4 5 4 4 4 4 4 3 2 1 2 3 3 3 2 3 4 5 4 4 4 3 5 5 6 7 8 9 9 10 12 12 13 14 7 6 6 5 5 8 11 12 14 14 10 9 11 11 12 12 12 11 11 11 11 12 12 12 12 12 13 14 15 16 16
16 16 16 15 14 13 13 13 12 12 10 9 8 6 5 5 5 5 5 6 5 5 5 5 5 4 4 4 3 2 2 2 2 2 2 2 3 4 3 4 3 1 1 2 4 5 5 7 7 8 12 13 13 14 10 7 6 5 4 4 7 9 13 17 16 13 13 12 11 11 12 12 11 11 11 11 12 12 13 13 13 13 13 13 15
16 16 16 15 15 14 14 13 13 12 11 9 8 7 5 4 5 6 5 6 6 5 6 5 5 5 4 3 3 2 1 1 1 1 1 1 2 2 3 3 4 4 4 3 2 1 1 3 6 7 10 12 13 12 12 10 7 3 2 2 2 2 5 10 14 13 12 11 11 10 10 11 12 12 12 11 12 13 13 13 13 12 12 12 12
17 17 17 16 16 15 14 14 14 13 12 10 8 7 7 5 6 7 6 7 8 7 7 6 5 5 4 3 3 2 2 2 1 1 2 2 2 2 3 3 4 4 4 3 4 4 3 2 1 4 6 8 9 8 9 9 8 5 2 2 1 1 1 2 5 6 5 7 10 10 12 11 10 10 12 12 11 11 12 12 12 11 12 12 12
17 18 18 18 16 16 16 15 14 14 13 12 10 9 9 8 8 9 8 8 9 7 7 7 6 5 4 4 3 3 3 3 3 3 3 2 2 2 2 3 3 3 4 3 3 4 3 3 3 2 1 2 4 3 4 4 7 8 5 2 1 1 2 0 1 1 2 4 5 6 9 11 10 10 10 10 10 10 10 12 12 12 11 11 12
18 18 19 18 17 17 17 16 15 14 14 14 12 11 10 10 10 10 9 9 8 8 7 7 6 5 5 4 4 3 3 3 4 4 4 3 3 3 3 3 3 3 4 4 3 4 4 4 3 3 3 1 1 1 3 2 4 6 4 2 2 1 1 1 0 0 2 3 3 4 6 7 8 8 8 8 8 9 9 9 11 11 11 12 13
18 18 19 19 18 17 17 17 16 15 15 16 14 12 11 11 10 10 9 9 8 8 7 7 6 6 5 5 4 4 3 3 4 4 4 3 3 3 3 4 4 3 4 4 4 4 4 4 4 3 3 2 2 2 4 2 1 1 0 2 2 1 2 1 0 1 1 1 2 4 6 7 7 7 8 8 9 9 9 7 8 10 10 12 13
20 19 19 20 20 19 18 18 16 16 16 17 16 13 12 12 11 10 9 9 8 9 8 8 7 7 6 5 5 4 4 4 3 4 3 4 4 4 4 4 4 4 4 5 6 5 5 4 4 4 4 4 3 2 2 2 2 3 2 1 3 1 1 2 3 3 3 2 3 2 4 6 6 8 11 10 7 8 8 6 7 10 10 12 11
21 20 19 20 21 20 19 18 17 17 18 18 18 15 13 13 12 11 10 9 9 10 9 8 8 7 7 6 5 5 4 4 3 4 4 5 5 4 4 4 5 5 5 6 6 6 6 5 5 5 4 4 4 4 3 3 3 4 3 2 2 1 1 1 1 1 1 2 2 2 2 4 6 9 10 9 8 9 9 10 11 11 11 13 11
21 21 19 20 21 21 20 20 18 17 19 19 19 17 14 14 13 12 12 11 11 11 10 9 8 8 7 6 5 5 5 4 4 5 5 5 5 5 4 4 5 5 6 6 6 6 6 6 6 6 5 5 4 4 4 4 4 4 4 4 2 1 1 3 4 2 3 5 4 3 5 4 3 7 11 11 11 11 13 15 17 16 13 13 13
21 21 21 21 22 22 21 21 19 18 19 20 20 18 16 14 13 13 13 12 12 12 11 10 9 8 8 7 6 6 5 5 5 5 5 5 5 4 4 4 4 4 5 5 5 5 5 5 5 5 6 5 5 4 4 4 4 3 3 4 4 3 3 1 1 2 2 3 3 4 6 7 6 6 8 11 12 13 16 18 20 20 18 15 14
Wind_Direction
130 134 139 149 147 148 147 144 141 135 135 133 138 141 145 150 154 160 163 165 165 167 165 165 159 153 153 154 155 151 150 150 151 149 145 146 144 140 139 139 139 139 136 132 122 114 108 101 94 90 88 86 85 88 91 91 90 92 97 97 96 95 92 91 91 93 91 91 94 94 94 94 93 94 93 90 85 80 85 85 80 78 77 78 76
135 135 139 150 147 147 146 144 141 137 137 135 136 137 141 146 151 157 161 165 165 166 164 164 161 155 157 157 156 150 149 150 151 150 147 151 151 144 144 146 145 143 138 135 126 113 107 104 104 101 96 93 91 91 93 94 99 102 105 106 103 99 95 96 95 95 98 98 99 98 94 93 94 94 91 90 86 83 87 90 87 82 80 80 78
134 133 140 148 147 147 146 144 141 138 138 137 136 135 137 138 144 148 154 162 163 163 162 163 161 158 160 158 154 150 148 149 152 152 150 154 157 156 155 153 151 147 141 140 130 117 113 112 111 106 103 100 97 98 94 97 112 112 108 109 108 106 104 101 99 102 107 105 99 97 95 91 89 88 88 93 104 99 95 96 92 86 87 83 77
134 132 141 147 147 147 147 145 142 140 139 138 136 134 135 136 141 145 150 156 157 160 159 159 159 159 160 157 151 147 148 149 150 153 155 157 159 164 165 161 159 153 149 144 129 122 117 111 109 105 106 103 103 104 98 108 123 122 115 113 112 116 116 106 104 106 103 104 98 91 91 90 83 79 84 89 103 106 98 92 88 88 91 87 81
133 133 141 144 147 149 147 146 144 142 141 139 137 134 133 136 141 144 148 149 153 155 155 155 155 157 157 154 146 143 150 150 148 151 158 162 161 162 166 165 161 155 151 144 131 128 116 108 108 107 108 107 108 105 99 116 132 130 127 124 122 125 122 110 106 102 94 97 96 89 87 91 89 81 81 84 91 97 92 88 87 85 83 84 86
133 134 139 140 146 150 149 148 147 145 143 140 138 135 133 137 141 143 146 148 150 151 152 153 154 154 152 150 144 144 151 154 154 153 156 162 162 159 162 159 158 153 146 137 132 129 117 113 115 111 113 113 113 107 99 112 131 133 134 135 136 136 130 119 108 101 95 91 81 82 95 94 93 87 83 84 86 88 87 87 86 76 71 74 78
132 135 138 139 145 151 151 150 149 146 144 143 140 136 135 136 141 143 146 149 149 150 153 154 154 152 149 147 143 144 146 150 151 148 148 151 154 156 158 157 156 150 143 134 132 131 122 126 124 119 119 118 116 109 105 110 122 129 135 136 141 139 131 131 107 86 81 88 86 97 104 98 97 94 89 90 89 87 88 89 87 78 73 73 73
131 136 139 140 147 153 152 152 150 148 146 145 142 137 136 136 140 145 147 149 148 150 153 154 154 150 149 148 146 144 143 144 144 143 145 148 150 154 156 155 152 148 146 142 146 143 134 140 128 126 125 121 119 114 116 116 118 127 128 126 139 137 121 132 109 79 65 57 98 112 98 101 100 96 95 94 92 89 87 90 89 81 76 74 75
131 136 139 140 149 153 152 154 152 150 150 148 144 138 136 136 140 145 148 150 148 150 151 152 151 149 149 150 148 145 143 144 147 148 148 151 153 155 154 154 154 153 151 151 160 152 145 152 138 136 133 124 121 121 126 124 128 133 125 124 136 117 105 126 102 72 66 66 113 111 95 107 108 101 99 98 94 92 92 97 92 83 87 89 86
132 136 138 141 150 153 154 155 154 153 152 151 147 140 138 138 140 144 148 151 151 151 151 151 150 151 150 150 150 148 147 148 151 151 151 153 155 159 159 160 162 160 157 160 162 154 155 160 150 141 133 128 126 131 131 129 141 143 135 127 126 70 119 124 95 61 66 108 105 95 96 95 99 100 98 97 94 96 101 109 98 85 91 92 89
132 135 135 142 150 153 155 155 155 155 154 155 150 145 142 141 142 145 148 150 152 152 151 153 153 154 152 153 154 153 153 152 154 153 155 158 160 163 161 162 163 163 164 165 160 157 163 162 160 144 132 135 135 140 135 133 140 139 142 125 107 101 120 123 99 65 81 113 88 98 113 86 88 97 97 96 92 91 94 99 94 88 88 88 89
132 133 133 143 150 153 156 156 156 157 157 157 155 151 147 145 146 148 150 151 152 153 153 155 156 156 155 157 157 156 156 155 157 157 160 164 167 168 164 162 156 159 163 161 159 162 169 166 166 153 140 147 147 149 138 129 122 105 102 82 100 117 122 115 88 108 129 113 100 121 122 92 93 100 100 100 96 92 93 95 94 93 89 89 89
131 131 135 143 148 153 156 157 158 159 160 160 160 157 154 151 151 152 154 156 156 157 158 161 161 162 162 161 160 159 159 158 158 160 163 167 175 176 171 165 152 152 154 157 161 166 175 175 176 163 148 154 158 162 141 114 100 87 77 67 107 122 115 86 60 181 142 119 121 128 109 96 103 105 106 105 103 102 101 102 98 96 90 89 89
129 130 137 143 148 152 154 158 160 162 162 163 164 162 161 156 155 157 158 161 162 164 166 166 166 166 167 166 167 166 165 161 160 162 164 166 173 177 174 163 149 148 149 153 162 170 180 182 178 160 149 155 163 159 134 110 91 68 55 49 107 128 116 85 61 118 134 122 126 131 114 111 119 114 115 111 109 111 107 106 103 100 95 90 89
129 131 137 144 149 151 154 158 161 164 166 167 167 168 166 162 160 161 163 165 166 169 170 171 172 171 171 173 174 173 169 164 164 165 164 163 164 171 172 164 151 147 150 150 162 173 180 178 164 156 162 161 156 149 130 110 79 51 37 29 100 141 140 136 45 110 132 134 129 135 119 124 143 126 120 115 110 117 113 111 108 105 100 93 90
129 131 136 145 147 151 155 158 164 167 169 170 171 173 171 167 166 165 167 169 171 172 172 172 174 175 175 176 176 176 173 169 168 168 165 162 160 166 172 173 164 151 155 156 163 173 182 182 167 162 172 166 156 150 135 117 71 50 40 27 87 160 156 163 165 121 134 131 134 137 119 125 147 131 126 123 119 123 117 113 110 107 103 96 92
130 133 136 145 148 152 155 159 166 169 172 174 175 178 175 173 172 171 170 172 176 176 174 173 175 177 176 174 177 176 175 174 172 168 165 164 165 168 174 178 177 165 165 170 170 173 185 190 182 174 174 168 162 157 147 124 70 52 48 34 85 160 156 132 128 148 126 121 131 131 127 127 130 128 130 126 124 124 120 117 113 110 106 99 94
133 135 138 144 148 152 153 160 169 171 174 174 177 180 180 179 178 176 172 176 180 180 177 176 178 178 174 172 173 175 174 177 176 170 167 170 172 171 175 181 189 190 180 182 181 179 185 187 185 187 180 168 164 170 174 138 70 48 48 44 90 155 153 115 117 144 121 128 115 119 134 129 126 130 130 129 129 128 126 122 116 114 110 102 98
135 137 140 143 145 149 152 160 170 173 173 174 178 180 184 184 183 180 176 179 182 183 181 180 182 178 175 170 170 173 170 177 179 174 173 178 181 177 179 184 194 198 188 185 188 189 189 189 193 194 181 170 169 186 199 204 47 40 43 57 92 147 144 113 163 150 126 151 120 129 148 134 133 136 131 132 133 132 129 126 122 118 112 106 102
136 138 142 145 144 145 148 155 168 175 173 174 178 179 185 187 187 185 183 185 181 181 183 181 182 177 175 172 171 165 160 174 177 176 180 179 184 186 186 188 193 194 189 184 189 195 194 193 196 193 183 179 186 199 211 252 314 346 21 63 99 142 153 301 268 164 136 138 120 134 158 133 140 139 133 134 136 136 133 130 127 123 117 112 105
139 141 144 150 145 141 143 154 165 170 172 173 175 176 185 190 190 190 191 192 186 184 182 180 179 178 180 178 170 154 155 175 171 181 187 177 182 192 193 193 190 189 191 190 192 199 201 196 194 194 188 191 204 217 234 261 286 297 338 17 111 165 187 237 223 174 154 129 129 136 347 137 144 142 140 140 142 137 134 134 132 130 123 119 112
145 144 149 153 147 142 143 153 162 164 167 170 171 171 182 190 191 193 197 197 197 195 184 181 179 180 186 179 167 161 172 181 180 192 192 181 187 197 198 196 192 190 192 195 201 206 207 201 199 203 200 207 218 227 247 258 272 281 281 294 219 197 202 199 192 196 173 138 152 205 319 155 145 147 148 146 147 136 137 139 135 136 130 127 124
150 147 152 153 147 147 146 147 155 158 159 166 166 164 180 188 190 192 198 201 205 202 190 189 192 197 193 176 169 178 183 187 190 195 196 193 193 198 200 196 194 195 196 197 207 212 208 202 203 209 211 219 221 221 235 235 242 277 274 261 217 207 202 195 194 202 181 139 158 240 306 151 143 149 154 149 150 142 144 144 142 146 140 137 133
154 150 152 154 150 151 147 146 153 153 153 161 159 161 178 186 190 192 194 201 206 203 200 202 202 212 196 165 164 185 193 198 200 202 202 200 196 199 200 195 196 199 200 197 207 216 209 203 206 212 213 215 216 217 219 214 216 235 246 232 214 208 201 197 191 193 180 137 147 223 341 148 143 150 160 155 156 157 152 151 154 153 152 149 142
153 154 153 155 155 153 149 148 152 152 152 154 154 164 176 186 193 197 197 196 204 206 210 212 200 206 196 163 163 188 198 197 201 209 209 205 201 201 200 197 198 198 197 192 198 208 205 201 205 212 213 211 216 224 221 207 211 226 228 225 217 211 207 201 188 187 177 155 173 302 15 153 147 152 162 159 165 179 161 156 166 165 167 163 155
154 155 152 155 161 162 158 155 154 153 152 150 158 165 170 186 191 201 206 195 203 207 209 219 206 203 207 183 184 192 198 202 198 203 209 209 206 203 203 205 201 197 198 196 195 197 199 201 201 208 216 217 219 231 233 214 212 227 230 223 217 214 212 201 185 187 173 169 197 257 232 161 155 157 161 162 169 186 172 164 180 181 178 171 164
158 152 150 156 166 169 163 165 163 156 152 150 158 163 165 178 182 192 199 192 200 204 205 219 213 204 203 185 181 179 190 216 211 203 210 212 211 207 210 213 206 200 203 204 199 194 201 208 203 205 217 220 215 218 221 217 219 232 233 221 216 216 213 202 189 188 173 171 194 230 186 166 163 160 160 171 173 180 183 176 185 198 189 178 174
158 150 152 158 170 171 164 167 163 163 161 151 153 168 178 177 182 198 203 199 195 197 199 204 205 196 201 197 184 180 188 204 209 209 215 216 220 218 218 217 208 206 199 200 202 197 208 215 210 209 215 219 213 209 209 214 220 230 239 230 221 216 211 205 195 187 179 179 193 216 194 166 167 162 161 175 180 180 187 189 192 205 196 180 181
154 151 155 159 170 167 162 164 157 169 173 159 160 178 201 194 199 208 209 205 188 188 196 193 194 179 187 201 195 194 194 200 212 216 212 207 216 222 224 213 210 217 195 193 202 201 217 218 210 213 214 219 216 212 214 216 214 218 233 232 226 220 210 201 200 195 185 181 189 196 194 168 166 166 166 174 182 181 186 194 196 204 209 186 182
152 151 154 157 163 159 159 163 154 167 167 169 176 172 194 200 203 201 198 197 182 186 188 188 201 181 176 192 197 202 201 207 222 231 225 208 208 220 231 218 221 239 213 199 204 200 222 223 216 216 210 220 225 217 218 224 220 214 219 226 226 221 213 201 201 204 193 182 188 196 207 200 175 170 172 176 181 186 192 194 196 208 216 202 179
150 149 153 152 153 155 158 158 141 139 156 158 162 164 191 203 208 199 190 190 185 182 170 178 203 192 185 195 200 209 210 208 219 243 253 236 222 223 235 225 221 235 231 217 214 209 221 228 221 218 207 213 235 229 217 229 229 218 212 217 223 216 210 208 205 205 202 190 187 197 214 216 196 180 176 178 180 188 197 194 198 208 209 208 201
149 151 151 145 147 151 143 138 124 120 138 129 128 160 206 205 208 210 186 167 169 171 174 189 199 195 201 208 208 215 220 210 215 234 240 241 238 233 234 230 225 227 226 223 225 222 223 232 224 224 222 199 227 230 217 230 233 230 219 208 214 218 209 209 212 208 207 203 192 198 211 214 211 201 187 180 181 189 193 196 206 207 204 210 216
151 151 142 139 142 138 130 127 118 118 122 106 110 157 233 236 225 221 181 149 153 165 183 189 180 180 197 215 211 210 218 211 217 229 233 236 237 241 239 235 235 228 225 226 229 226 221 229 222 223 232 195 200 209 213 227 227 235 237 216 206 215 213 207 212 214 210 209 204 202 206 208 212 213 206 193 188 190 188 191 204 205 203 212 216
149 148 142 140 143 138 135 134 129 129 129 129 139 155 222 254 255 248 169 153 156 155 180 185 177 177 176 195 207 207 212 206 213 225 233 235 236 246 245 243 244 232 231 232 232 233 227 232 230 219 216 207 211 215 217 224 222 225 241 243 221 210 215 213 209 211 212 214 215 212 206 203 201 204 211 208 200 196 191 189 195 198 201 213 215
148 148 147 145 146 143 143 141 139 140 136 140 146 127 133 216 303 69 44 357 150 148 174 190 198 196 176 187 215 221 229 225 221 228 233 236 239 243 240 241 246 234 236 239 235 235 231 234 239 233 208 202 218 221 215 219 226 223 227 247 247 227 220 222 219 213 213 216 218 220 217 212 201 194 198 206 210 208 202 198 196 192 195 209 215
148 149 150 149 149 146 142 141 143 143 140 141 135 118 109 105 78 83 59 32 99 141 149 183 186 179 172 180 207 220 240 236 226 233 237 243 245 245 243 242 243 235 234 238 242 237 228 226 234 238 220 209 214 213 209 216 228 228 224 232 245 251 238 231 232 225 220 219 218 218 219 222 216 202 195 201 211 215 211 207 205 199 196 204 211
149 151 153 152 151 148 144 142 145 145 143 143 137 127 116 117 107 104 90 60 76 110 142 192 150 127 160 146 158 191 225 229 226 238 246 251 250 252 256 253 248 241 232 229 238 238 228 224 229 230 227 223 220 211 206 216 222 222 227 227 229 240 243 240 240 237 233 227 224 223 219 218 219 214 205 202 208 215 216 212 211 211 207 207 210
151 154 154 155 153 149 147 146 149 149 146 147 141 135 126 123 114 104 88 73 69 55 85 121 117 126 140 113 132 173 217 241 239 247 255 259 257 257 259 259 253 243 241 238 233 234 230 228 230 230 232 233 229 220 206 211 220 216 224 239 236 228 233 243 247 247 243 237 232 228 227 223 217 214 211 212 213 213 214 214 215 219 218 218 216
156 157 154 156 154 150 151 150 153 152 149 151 145 140 140 135 127 123 113 125 120 84 79 80 82 90 88 95 129 208 259 267 268 270 266 271 275 269 265 266 257 244 246 242 230 234 236 235 234 233 242 243 239 233 206 203 220 219 224 246 250 243 236 239 243 246 245 245 244 233 231 229 221 218 215 215 221 215 212 212 214 219 223 225 222
160 159 156 158 156 152 154 153 156 155 152 156 155 155 156 149 145 144 134 126 112 96 94 96 90 82 84 90 76 344 298 322 312 296 283 287 290 285 291 285 266 248 236 235 234 239 233 235 240 238 242 246 250 249 210 196 221 231 249 254 259 269 269 263 259 257 252 249 248 240 235 232 224 222 222 220 223 221 215 212 212 213 219 229 229
165 164 161 162 159 157 157 156 158 159 160 164 165 167 164 157 155 149 142 138 126 119 115 96 90 82 74 72 63 38 348 344 326 321 313 298 295 295 308 314 294 250 220 222 235 240 228 233 248 245 242 242 252 258 236 202 218 226 245 257 263 271 277 282 285 282 271 255 242 238 239 241 235 227 225 226 226 227 223 217 217 215 216 227 231
171 171 168 166 163 161 160 159 160 161 167 168 166 169 165 156 155 150 146 138 127 127 124 102 97 93 78 68 57 46 11 340 335 344 320 294 297 299 318 339 345 31 183 189 209 238 231 235 250 244 243 245 245 252 251 235 232 230 222 248 269 272 275 279 278 276 274 268 255 244 239 240 244 239 232 230 229 230 230 225 222 223 223 226 227
175 176 174 172 168 167 164 161 163 163 166 167 165 167 158 144 142 141 138 126 112 106 110 109 108 102 90 81 69 61 36 7 14 3 330 344 338 317 336 352 3 41 50 70 127 162 184 223 244 233 234 244 244 247 247 237 229 228 210 225 257 287 284 278 273 268 264 264 263 264 264 249 241 241 239 237 237 233 234 234 229 226 228 230 228
179 179 179 178 174 173 169 165 165 164 164 166 163 157 147 137 131 128 119 117 119 117 118 118 114 108 99 85 78 74 54 55 65 57 50 37 13 349 350 356 1 16 23 41 72 69 79 102 225 219 221 240 246 246 245 238 228 223 239 238 166 163 260 275 275 272 267 261 255 271 295 283 260 257 248 238 240 238 236 242 241 236 235 235 235
182 181 181 181 178 175 171 167 166 165 163 164 161 153 149 144 139 134 123 122 132 140 138 131 126 120 106 94 94 90 73 67 66 61 64 59 33 13 358 358 4 3 5 18 43 44 48 56 53 69 132 234 253 234 221 225 222 223 230 237 165 219 251 32 49 283 288 282 260 265 294 290 278 292 284 256 251 253 249 250 249 247 244 241 241
185 183 181 181 179 175 173 169 166 165 163 163 162 158 158 158 156 153 149 146 150 153 148 140 136 127 113 109 106 96 85 78 71 67 68 62 48 38 15 6 16 17 12 23 34 32 32 28 18 39 90 116 10 123 149 155 208 223 236 262 272 199 119 57 114 301 286 276 264 260 282 283 275 295 312 308 302 291 281 270 260 258 254 249 247
185 183 181 181 179 176 174 170 167 166 163 164 164 163 166 169 170 166 162 161 156 148 143 140 134 125 122 120 113 106 99 88 79 76 73 63 55 48 33 22 32 38 32 41 45 39 41 34 18 17 38 46 34 86 116 127 196 209 269 307 318 131 122 87 349 350 318 275 285 278 276 274 274 277 278 298 323 314 300 287 269 270 267 260 256
185 184 181 180 179 177 176 172 169 166 164 165 167 169 171 173 177 171 165 165 153 144 142 141 136 130 132 131 126 124 115 103 93 90 87 79 72 65 54 44 39 42 50 57 52 48 55 52 43 34 28 28 22 41 84 63 36 54 73 24 11 43 114 43 30 13 354 331 335 328 295 288 288 275 262 268 287 286 282 280 273 273 272 269 265
187 185 182 179 179 178 176 174 172 167 166 168 169 174 176 176 179 173 168 165 151 149 152 147 144 140 140 140 134 133 126 115 106 100 101 96 92 83 66 52 38 33 42 55 57 54 56 53 52 51 47 48 38 25 27 34 35 31 21 357 8 53 151 127 71 31 158 240 301 344 329 323 308 284 275 273 262 252 256 260 264 268 273 274 267
190 186 181 179 178 179 177 176 174 169 168 170 170 175 178 178 181 176 172 166 156 159 160 152 153 153 150 149 145 142 137 129 121 115 114 109 103 91 75 60 43 37 42 53 57 56 58 56 55 56 54 56 55 46 37 39 42 29 11 355 343 339 211 181 190 213 195 208 237 250 237 232 268 284 288 287 276 265 259 257 260 265 271 272 269
193 187 181 180 179 179 178 177 176 173 171 171 172 176 178 181 183 180 175 169 162 164 163 161 166 166 162 161 160 154 146 142 138 134 128 122 115 101 87 72 57 47 47 50 52 56 61 61 59 59 58 57 57 56 51 46 43 40 26 14 15 13 351 328 324 345 326 270 275 261 235 219 211 244 270 276 280 281 274 267 265 267 267 265 265